CAPE
2017 1332 970 803 1228 1131 909 722 1075 2494 2028 1981 2046 1976 2362 2133 2053 1744 1611 1206 146 0
2583 1951 1287 1019 1539 1301 1599 875 977 1205 1893 1983 2073 2265 2466 1998 2397 1784 1668 1422 1160 134
2809 2600 1987 1800 1866 1744 1618 1806 1456 1408 1558 1949 2228 2359 2575 2087 2167 2287 1652 1169 1218 929
2749 2773 2760 2240 2270 2152 2632 2505 2005 2214 1847 1911 2159 2471 2829 2513 2103 2453 2235 1496 1274 1164
2705 2780 2661 2694 2300 2640 2489 2864 2964 2258 2597 2153 2120 2451 2726 2823 1843 2349 2443 2077 1363 1124
2709 2732 2604 2629 2819 2676 2858 2903 2850 2960 2703 2575 2310 2246 2934 3084 2840 2439 2568 2399 1987 1369
2716 2749 2725 2636 2797 2838 2960 3037 3044 3002 3042 2986 2830 2494 2615 3076 3109 2909 2503 2629 2353 1847
2651 3000 2925 2785 2696 3006 2991 3144 3192 3247 3239 3301 3210 2643 2543 2407 2901 3128 2815 2634 2690 2324
2675 2986 3179 3059 2966 3014 3025 3050 3248 3231 3319 3291 3114 2484 1957 2445 2482 2945 3068 2836 2932 2592
2748 2950 3249 3332 3248 3242 3171 3169 3081 3306 3377 3397 3422 2762 1842 1740 2470 2692 2985 3010 3034 2977
2707 2935 3204 3439 3415 3403 3417 3312 3353 3382 3509 3463 3558 3198 2371 1563 1961 2343 2618 2909 2911 3012
2814 2978 3274 3353 3505 3491 3466 3526 3533 3590 3612 3579 3580 3016 2665 2195 2043 2164 2382 2640 2921 2728
2938 3143 3110 3285 3537 3523 3609 3522 3201 3310 3524 3619 3681 3237 2481 2268 2507 2299 2182 2391 2532 2447
2907 3233 3339 3499 3562 3598 3520 3024 3276 3217 3470 3553 3505 3492 2502 1888 1922 1824 1899 2212 2141 2290
CIN
-84 -104 -121 -99 -34 -40 -24 -26 -13 -11 -3 0 -1 -1 -1 -1 -2 -9 -16 -29 -111 0
-71 -96 -125 -142 -85 -64 -16 -27 -15 -22 -1 -1 -1 0 -1 -4 -2 -7 -31 -35 -53 -156
-93 -101 -99 -91 -80 -68 -66 -23 -6 -19 -8 -1 0 -1 0 -5 -3 -5 -33 -63 -60 -83
-115 -89 -72 -78 -68 -61 -26 -22 -23 -3 -14 -8 -2 0 0 -2 -4 -8 -18 -60 -66 -93
-115 -101 -90 -87 -78 -53 -62 -32 -20 -34 -6 -23 -20 -4 0 -6 -48 -15 -33 -61 -92 -114
-137 -120 -116 -104 -85 -70 -56 -53 -51 -31 -32 -24 -26 -29 -4 -11 -31 -38 -28 -45 -64 -110
-186 -188 -162 -140 -117 -88 -73 -69 -62 -61 -46 -40 -35 -36 -41 -12 -13 -22 -27 -24 -49 -80
-231 -202 -184 -170 -156 -120 -98 -82 -81 -70 -59 -52 -47 -54 -67 -72 -23 -12 -40 -48 -34 -55
-210 -198 -190 -191 -178 -149 -146 -128 -102 -97 -82 -76 -66 -74 -122 -81 -66 -24 -25 -45 -32 -57
-213 -217 -195 -186 -180 -179 -181 -161 -163 -125 -100 -89 -85 -106 -155 -135 -64 -43 -14 -23 -16 -13
-251 -245 -221 -195 -194 -182 -172 -183 -171 -167 -136 -103 -85 -105 -172 -214 -148 -106 -70 -27 -31 -1
-269 -268 -251 -257 -217 -196 -184 -175 -170 -146 -124 -142 -130 -159 -192 -207 -162 -137 -97 -53 -17 -53
-284 -285 -297 -275 -238 -213 -187 -194 -186 -182 -170 -150 -144 -185 -272 -249 -153 -132 -153 -149 -109 -106
-339 -311 -291 -251 -232 -226 -222 -241 -225 -202 -170 -170 -185 -188 -359 -367 -367 -329 -291 -193 -160 -163
Wind_Speed
27 24 20 19 18 15 19 8 3 10 9 16 16 17 15 15 17 16 16 15 15 15
22 23 20 17 15 20 15 13 2 5 8 12 17 15 14 12 13 17 14 14 14 14
24 23 21 16 16 14 15 14 6 5 7 11 13 14 13 9 11 13 13 14 11 12
25 24 23 22 17 16 11 11 14 5 7 9 13 12 12 13 6 9 8 10 9 8
25 26 25 27 26 19 19 15 13 14 9 10 12 13 13 14 14 11 10 9 8 6
24 24 24 24 25 26 24 21 18 17 15 12 12 14 15 16 17 16 13 9 8 7
22 22 20 20 22 25 25 23 21 21 19 18 18 19 20 18 18 16 13 11 11 9
24 21 21 22 24 23 24 22 22 21 21 22 23 24 25 24 18 17 17 16 14 13
26 25 24 21 21 22 23 22 22 25 25 24 26 26 25 22 22 18 17 18 18 17
25 26 24 22 22 23 22 20 24 24 24 25 26 24 24 23 17 16 18 19 20 20
22 23 21 22 23 21 19 20 21 22 21 20 20 18 19 20 22 20 20 20 22 23
19 19 19 21 20 18 17 18 20 19 19 20 19 17 18 18 20 22 24 24 22 24
18 19 20 20 18 17 18 18 17 18 19 19 19 19 18 18 23 24 26 28 27 28
17 18 18 17 17 16 16 16 17 18 17 18 20 19 20 22 23 22 24 27 28 27
Wind_Direction
187 185 184 185 181 176 185 159 117 148 152 172 164 164 158 150 158 147 145 135 138 142
189 190 191 191 193 192 183 179 168 148 150 163 169 162 159 155 146 157 142 138 137 140
194 196 197 199 198 196 194 189 180 179 164 168 173 173 169 166 161 155 155 157 138 143
198 199 200 203 206 207 212 199 193 208 189 180 181 183 181 181 185 172 167 167 159 151
195 195 199 201 202 204 204 205 203 199 206 200 193 192 197 192 189 193 190 190 188 185
198 197 199 199 199 199 199 201 201 200 203 209 208 203 203 202 198 197 202 211 213 221
203 203 202 198 196 196 196 197 197 199 200 201 201 201 202 205 206 208 219 225 220 233
199 200 199 197 194 192 193 194 196 197 198 200 202 203 204 205 213 219 220 220 227 230
195 196 197 199 198 196 197 198 199 201 202 203 205 207 207 208 213 224 233 233 238 241
195 197 198 199 200 202 204 208 207 208 209 211 211 212 213 214 228 241 244 245 258 259
201 201 202 202 205 210 216 216 216 218 220 223 223 228 227 227 229 239 243 247 250 259
214 212 214 212 215 220 228 231 223 228 231 234 245 248 243 246 254 252 261 262 257 259
224 231 225 222 234 239 245 249 244 239 235 241 247 251 255 260 273 271 270 265 254 252
234 230 236 239 243 236 233 240 240 247 252 249 245 247 238 240 232 247 249 257 260 259